Notices

What's New in latest Release from April 7th, 2021:

- Updated Glossary, including Speed of Maximum Gust, and Total Hourly Precipitation

- Updated national and regional climate services offices contacts and prices information

- Addition of station inventory lists for 1981-2010, 1971-2000, and 1961-1990 Normals.

If you haven't already, please take our survey and provide feedback about our website: https://eccc.sondage-survey.ca/f/LanguageSelection.aspx?s=442ca660-fcf1-47c0-95a9-59707d6fd709

Hourly Data Report for April 29, 2017

MIRAMICHI RCS
NEW BRUNSWICK

47°00'34.000" N
65°27'54.000" W
33.00 m
8100989
71744
ACQ

Download Data

Hourly Data (April 2017)
Hourly Data Report for April 29, 2017
TIME
LST
Temp Definition
°C
Dew Point Definition
°C
Rel Hum Definition
%
Precip. Amount Definition
mm

Wind Dir Definition
10's deg

Wind Spd Definition
km/h
Visibility Definition
km
Stn Press Definition
kPa
Hmdx Definition


Wind Chill Definition


Weather Definition


00:00 11.1 11.0 99 0.0 23 13   100.74     LegendNANA
01:00 10.8 10.7 99 0.0 24 16   100.72     LegendNANA
02:00 10.5 10.3 99 0.0 25 13   100.64     LegendNANA
03:00 10.6 10.4 99 0.0 25 12   100.67     LegendNANA
04:00 10.1 10.0 99 0.0 23 13   100.62     LegendNANA
05:00 9.0 8.9 99 0.0 22 10   100.64     LegendNANA
06:00 8.3 8.1 99 0.0 23 7   100.65     LegendNANA
07:00 10.2 8.4 89 0.0 24 11   100.63     LegendNANA
08:00 10.7 8.2 84 0.0 25 13   100.56     LegendNANA
09:00 11.3 8.4 82 0.0 23 17   100.50     LegendNANA
10:00 12.2 8.5 78 0.0 24 13   100.46     LegendNANA
11:00 12.7 9.1 79 0.0 25 14   100.44     LegendNANA
12:00 13.2 9.4 78 0.0 21 15   100.29     LegendNANA
13:00 16.2 9.8 66 0.0 22 15   100.16     LegendNANA
14:00 15.8 7.9 60 0.0 24 16   100.11     LegendNANA
15:00 18.0 7.5 50 0.0 24 24   100.00     LegendNANA
16:00 18.8 7.4 47 0.0 25 24   99.92     LegendNANA
17:00 17.7 7.7 52 0.0 26 17   99.91     LegendNANA
18:00 18.2 5.7 44 0.0 28 21   99.91     LegendNANA
19:00 16.1 5.3 49 0.0 32 11   100.03     LegendNANA
20:00 10.4 1.5 54 0.0 32 20   100.31     LegendNANA
21:00 8.6 0.2 55 0.0 32 18   100.52     LegendNANA
22:00 7.3 -2.4 50 0.0 33 15   100.69     LegendNANA
23:00 6.3 -3.2 50 0.0 31 18   100.78     LegendNANA

Notes on Data Quality.

Legend

  • E = Estimated
  • M = Missing
  • NA = Not Available*
  • [empty] = Indicates an unobserved value
Date modified: